TimeMDT,TemperatureF,Dew PointF,Humidity,Sea Level PressureIn,VisibilityMPH,Wind Direction,Wind SpeedMPH,Gust SpeedMPH,PrecipitationIn,Events,Conditions,WindDirDegrees,DateUTC
12:14 AM,37.6,30.2,75,30.20,10.0,Calm,Calm,-,N/A,,Scattered Clouds,0,2012-10-05 06:14:00
12:34 AM,36.3,29.1,75,30.19,10.0,Calm,Calm,-,N/A,,Clear,0,2012-10-05 06:34:00
12:54 AM,34.2,29.3,82,30.19,10.0,Calm,Calm,-,N/A,,Clear,0,2012-10-05 06:54:00
1:14 AM,34.2,28.9,81,30.16,10.0,Calm,Calm,-,N/A,,Clear,0,2012-10-05 07:14:00
1:34 AM,32.9,27.9,82,30.17,10.0,NNW,4.6,-,N/A,,Clear,340,2012-10-05 07:34:00
1:54 AM,32.5,28.4,85,30.17,10.0,North,6.9,-,N/A,,Scattered Clouds,350,2012-10-05 07:54:00
2:14 AM,33.1,27.5,80,30.19,10.0,North,6.9,-,N/A,,Scattered Clouds,350,2012-10-05 08:14:00
2:34 AM,32.5,27.0,80,30.19,10.0,NW,3.5,-,N/A,,Scattered Clouds,320,2012-10-05 08:34:00
2:54 AM,33.6,27.3,78,30.19,10.0,NNW,8.1,-,N/A,,Scattered Clouds,330,2012-10-05 08:54:00
3:14 AM,34.7,26.6,72,30.19,10.0,North,11.5,-,N/A,,Overcast,350,2012-10-05 09:14:00
3:34 AM,34.9,25.9,70,30.19,10.0,North,13.8,19.6,N/A,,Overcast,350,2012-10-05 09:34:00
3:54 AM,34.3,25.5,70,30.20,10.0,North,15.0,19.6,N/A,,Mostly Cloudy,360,2012-10-05 09:54:00
4:14 AM,34.2,25.5,71,30.22,10.0,North,6.9,-,N/A,,Mostly Cloudy,360,2012-10-05 10:14:00
4:34 AM,34.3,25.3,70,30.21,10.0,NNW,9.2,-,N/A,,Overcast,340,2012-10-05 10:34:00
4:54 AM,34.2,25.2,70,30.20,10.0,North,9.2,-,N/A,,Overcast,350,2012-10-05 10:54:00
5:14 AM,32.7,27.0,79,30.20,7.0,North,8.1,-,N/A,Snow,Light Snow,360,2012-10-05 11:14:00
5:34 AM,32.0,28.4,87,30.19,10.0,North,6.9,-,N/A,,Overcast,360,2012-10-05 11:34:00
5:54 AM,32.0,28.8,88,30.19,7.0,NW,3.5,-,N/A,Snow,Light Snow,320,2012-10-05 11:54:00
6:14 AM,31.8,29.3,90,30.19,7.0,Calm,Calm,-,N/A,Snow,Light Snow,0,2012-10-05 12:14:00
6:34 AM,31.8,29.5,91,30.18,10.0,Calm,Calm,-,N/A,,Overcast,0,2012-10-05 12:34:00
6:54 AM,32.0,30.0,92,30.18,10.0,West,3.5,-,N/A,,Overcast,260,2012-10-05 12:54:00
7:14 AM,32.2,29.8,91,30.16,10.0,SSW,5.8,-,N/A,,Scattered Clouds,200,2012-10-05 13:14:00
7:34 AM,32.0,29.8,92,30.17,10.0,Calm,Calm,-,N/A,,Clear,0,2012-10-05 13:34:00
7:54 AM,32.0,30.0,92,30.18,10.0,Calm,Calm,-,N/A,,Clear,0,2012-10-05 13:54:00
8:14 AM,33.6,31.1,90,30.20,10.0,NNE,5.8,-,N/A,,Clear,30,2012-10-05 14:14:00
8:34 AM,34.0,31.1,89,30.20,10.0,North,6.9,-,N/A,,Scattered Clouds,10,2012-10-05 14:34:00
8:54 AM,34.5,30.4,85,30.21,10.0,North,8.1,-,N/A,,Mostly Cloudy,10,2012-10-05 14:54:00
9:14 AM,34.7,29.7,82,30.22,10.0,North,11.5,17.3,N/A,,Overcast,10,2012-10-05 15:14:00
9:34 AM,35.2,30.6,83,30.23,10.0,North,9.2,-,N/A,,Overcast,360,2012-10-05 15:34:00
9:54 AM,36.1,30.2,79,30.23,10.0,North,5.8,-,N/A,,Mostly Cloudy,360,2012-10-05 15:54:00
10:14 AM,39.2,31.1,73,30.23,10.0,NNW,8.1,-,N/A,,Mostly Cloudy,340,2012-10-05 16:14:00
10:34 AM,37.8,30.2,74,30.23,10.0,North,9.2,-,N/A,,Overcast,360,2012-10-05 16:34:00
10:54 AM,37.4,29.7,74,30.24,10.0,North,9.2,-,N/A,,Overcast,10,2012-10-05 16:54:00
11:14 AM,39.6,29.8,68,30.24,10.0,North,6.9,-,N/A,,Overcast,10,2012-10-05 17:14:00
11:34 AM,41.2,30.2,65,30.24,10.0,North,9.2,-,N/A,,Overcast,350,2012-10-05 17:34:00
11:54 AM,40.3,29.7,66,30.25,10.0,NNE,10.4,-,N/A,,Overcast,20,2012-10-05 17:54:00
12:34 PM,39.7,29.5,67,30.25,10.0,North,3.5,-,N/A,,Overcast,10,2012-10-05 18:34:00
12:54 PM,40.1,29.7,66,30.25,10.0,NE,8.1,-,N/A,,Overcast,50,2012-10-05 18:54:00
1:14 PM,39.2,30.9,72,30.25,10.0,NE,5.8,-,N/A,,Overcast,50,2012-10-05 19:14:00
1:34 PM,39.6,31.1,72,30.24,10.0,NNE,9.2,-,N/A,,Overcast,30,2012-10-05 19:34:00
1:54 PM,39.6,31.3,72,30.24,10.0,NNE,8.1,-,N/A,,Overcast,30,2012-10-05 19:54:00
2:14 PM,40.1,31.1,70,30.24,10.0,North,8.1,-,N/A,,Overcast,10,2012-10-05 20:14:00
2:34 PM,40.8,30.2,66,30.24,10.0,North,12.7,-,N/A,,Overcast,360,2012-10-05 20:34:00
2:54 PM,41.0,31.1,68,30.25,10.0,North,9.2,-,N/A,,Overcast,350,2012-10-05 20:54:00
3:14 PM,41.0,30.7,67,30.25,10.0,North,10.4,16.1,N/A,,Overcast,360,2012-10-05 21:14:00
3:34 PM,40.8,30.4,66,30.25,10.0,NNW,12.7,-,N/A,,Overcast,340,2012-10-05 21:34:00
3:54 PM,40.6,31.6,70,30.25,10.0,North,9.2,-,N/A,,Overcast,360,2012-10-05 21:54:00
4:14 PM,40.3,31.5,71,30.26,10.0,North,10.4,-,N/A,,Overcast,10,2012-10-05 22:14:00
4:34 PM,39.7,31.8,73,30.26,10.0,North,9.2,-,N/A,,Overcast,350,2012-10-05 22:34:00
4:54 PM,39.4,31.8,74,30.26,10.0,North,9.2,-,N/A,,Overcast,360,2012-10-05 22:54:00
5:14 PM,38.8,32.0,76,30.26,10.0,North,9.2,-,N/A,,Overcast,10,2012-10-05 23:14:00
5:34 PM,38.3,32.0,78,30.26,10.0,North,5.8,-,N/A,,Overcast,360,2012-10-05 23:34:00
5:54 PM,38.3,32.0,78,30.26,10.0,North,6.9,-,N/A,,Overcast,360,2012-10-05 23:54:00
6:14 PM,37.9,31.8,79,30.26,10.0,North,8.1,-,N/A,,Overcast,10,2012-10-06 00:14:00
6:34 PM,38.3,32.0,78,30.27,10.0,ENE,6.9,-,N/A,,Overcast,60,2012-10-06 00:34:00
6:54 PM,37.6,32.2,81,30.27,10.0,NE,6.9,-,N/A,,Overcast,50,2012-10-06 00:54:00
7:14 PM,37.0,32.5,84,30.28,10.0,ENE,6.9,-,N/A,,Overcast,70,2012-10-06 01:14:00
7:34 PM,36.5,33.1,87,30.29,7.0,ENE,8.1,-,N/A,,Overcast,70,2012-10-06 01:34:00
7:54 PM,36.0,33.6,91,30.29,5.0,East,6.9,-,N/A,,Overcast,80,2012-10-06 01:54:00
8:14 PM,35.8,33.3,91,30.30,7.0,East,6.9,-,N/A,,Overcast,80,2012-10-06 02:14:00
8:34 PM,35.2,33.6,94,30.30,4.0,ENE,6.9,-,N/A,,Overcast,70,2012-10-06 02:34:00
8:54 PM,34.9,33.6,95,30.30,7.0,East,5.8,-,N/A,,Overcast,90,2012-10-06 02:54:00
9:34 PM,35.1,32.9,92,30.29,10.0,East,4.6,-,N/A,,Overcast,100,2012-10-06 03:34:00
9:54 PM,35.2,32.9,91,30.29,10.0,Calm,Calm,-,N/A,,Overcast,0,2012-10-06 03:54:00
10:14 PM,35.2,32.7,91,30.28,10.0,East,4.6,-,N/A,,Overcast,100,2012-10-06 04:14:00
10:34 PM,35.2,32.4,89,30.27,10.0,East,4.6,-,N/A,,Overcast,100,2012-10-06 04:34:00
10:54 PM,35.2,32.5,90,30.27,10.0,East,3.5,-,N/A,,Overcast,90,2012-10-06 04:54:00
11:14 PM,35.6,32.4,88,30.26,10.0,ESE,5.8,-,N/A,,Overcast,110,2012-10-06 05:14:00
11:34 PM,35.4,32.5,89,30.26,10.0,ESE,5.8,-,N/A,,Overcast,110,2012-10-06 05:34:00
11:54 PM,35.1,32.5,91,30.25,10.0,ESE,3.5,-,N/A,,Overcast,110,2012-10-06 05:54:00